Simultaneous Nadir Overpasses (SNOs) Predictions

Prediction of SNOs between LANDSAT-8 and METOP-A Satellite Orbit:

Table of predicted SNOs for the next 14.0 days since TLE Epoch: 6/19/2015
Index Date (LANDSAT-8) Time (LANDSAT-8) Lat,Lon (LANDSAT-8) SZA (LANDSAT-8 ) Date (METOP-A) Time (METOP-A) Lat,Lon (METOP-A) SZA (METOP-A ) Distance(km) Time Diff (sec)
1 06/20/2015 11:37:52 81.20, 46.79 60.03 06/20/2015 11:37:16 81.20, 46.77 60.01 0.53 36
2 06/20/2015 12:27:18 -81.22,-145.27 119.93 06/20/2015 12:27:55 -81.22,-145.29 119.92 0.50 37
3 06/23/2015 07:12:08 81.20, 113.15 60.00 06/23/2015 07:11:36 81.19, 112.97 59.97 3.11 32
4 06/23/2015 08:01:34 -81.22, -78.88 119.95 06/23/2015 08:02:15 -81.21, -79.05 119.95 2.92 41
5 06/26/2015 02:46:22 81.21, 179.79 60.08 06/26/2015 02:45:53 81.21, 179.89 60.07 1.69 29
6
